Regional Weather Roundup
Issued by NWS Green Bay, WI

Home | Current Version | Previous Version | Graphics & Text | Print | Product List | Glossary Off
Versions: 1 2 3 4 5 6 7 8 9 10 11 12 13 14 15 16 17 18 19 20 21 22 23 24 25 26 27 28 29 30 31 32 33 34 35 36 37 38 39 40 41 42 43 44 45 46 47 48 49 50

000
ASUS43 KGRB 271410
RWRGRB

NORTH-CENTRAL AND NORTHEAST WISCONSIN REGIONAL WEATHER ROUNDUP
NATIONAL WEATHER SERVICE GREEN BAY WI
800 AM CST FRI FEB 27 2015

WIZ005-009-010>012-018-019-271500-
NORTH CENTRAL WISCONSIN

CITY           SKY/WX    TMP DP  RH WIND       PRES   REMARKS
IRONWOOD       MOSUNNY   -8  -8 100 SW6       30.37R WCI -21
MANITOWISH WTR MOSUNNY  -21 -27  72 SW3       30.36R
ARBOR VITAE    MOSUNNY   -9 -15  74 W3        30.36R
EAGLE RIVER    MOSUNNY  -14 -20  72 CALM      30.35R
LAND O LAKES   MOSUNNY  -18 -24  73 W3        30.35R
RHINELANDER    MOSUNNY  -11 -18  71 W7        30.37R WCI -26
PHILLIPS       MOSUNNY  -16 -22  72 CALM      30.40R
ANTIGO         SUNNY     -9 -15  74 CALM      30.39S
TOMAHAWK       MOSUNNY  -10 -15  79 CALM      30.41R
MERRILL        SUNNY    -14 -21  71 CALM      30.43R
$$

WIZ013-073-271500-
NORTHEAST WISCONSIN

CITY           SKY/WX    TMP DP  RH WIND       PRES   REMARKS
IRON MOUNTAIN  MOSUNNY   -5 -13  68 W7        30.39R WCI -19
MARINETTE      SUNNY     -2  -9  71 NW5       30.47R WCI -12
OCONTO         SUNNY     -2  -9  72 W6        30.50R WCI -14
$$

WIZ017-030-035>037-045-271500-
CENTRAL WISCONSIN

CITY           SKY/WX    TMP DP  RH WIND       PRES   REMARKS
MEDFORD        SUNNY     -9 -14  76 W5        30.42R WCI -20
WAUSAU         SUNNY     -5 -13  68 NW7       30.44R WCI -19
MOSINEE        SUNNY     -8 -15  71 W6        30.45R WCI -21
MARSHFIELD     SUNNY     -6 -13  71 W7        30.46R WCI -20
WISC RAPIDS    SUNNY     -7 -13  75 CALM      30.51R
STEVENS POINT  SUNNY    -12 -18  75 CALM      30.48R
WAUPACA        SUNNY      1 -10  58 W6        30.51R WCI -10
SHAWANO        SUNNY      0 -11  60 W7        30.49R WCI -13
CLINTONVILLE   SUNNY      0 -11  60 W5        30.49R WCI -10
$$

WIZ038-039-048-051-271500-
FOX VALLEY

CITY           SKY/WX    TMP DP  RH WIND       PRES   REMARKS
NWS GREEN BAY  SUNNY      1  -8  66 W7        30.51R WCI -12
APPLETON       SUNNY     -2 -11  65 W9        30.49R WCI -18
OSHKOSH        SUNNY      0 -10  63 W6        30.51R WCI -12
FOND DU LAC    SUNNY     -1 -10  65 CALM      30.52R
$$

WIZ022-050-052-271500-
EAST CENTRAL WISCONSIN

CITY           SKY/WX    TMP DP  RH WIND       PRES   REMARKS
STURGEON BAY   SUNNY      0  -9  65 W7        30.49R WCI -13
MANITOWOC      SUNNY      3  -6  66 W8        30.52R WCI -10
SHEBOYGAN      SUNNY      1  -9  62 W6        30.51R WCI -10
$$

LMZ563-521-522-541>543-271500-
LAKESHORE

STATION/POSITION TIME  TEMP    WIND        PRES    VSBY  WAVE
                       AIR SEA DIR/SP/G                  HT/PER
                 (UTC) (F)     (DEG/KT/KT) (MB)    (MI)  (FT/S)
SHEBOYGAN LKSHOR 1400    4     270/  8/ 10 1035.5R
KEWAUNEE LKSHORE 1400    1     290/  6/  8 1031.5R
TWO RIVERS CG    1300    0                 1032.7      6   0
NORTHPORT PIER   1400    3     270/  6/  9 1031.5S
STURGEON BAY CG  1400    0     300/  4     1031.0   3 1/2
CHAMBERS ISLAND  1400    0     190/  3/  5 1031.5S
MENOMINEE LKSHOR 1400   -1     260/  9     1032.5R
$$



USA.gov is the U.S. government's official web portal to all federal, state and local government web resources and services.